T7GPM LIRZ-LICC

Flight info

Callsign T7GPM
Flight time N/A
Altitude 33000
Route GITOD5N GITOD Y106 TIBER DCT TAGEL DCT VAKOR Q789 UXUTA UXUTA1H
Aircraft P180/L-SDE3FGHIRWY/C

Departure

Time 2026-05-04 20:00
Airport Perugia San Francesco d'Assisi – Umbria International Airport (LIRZ)

Arrival

Time N/A
Airport Catania-Fontanarossa Airport (LICC)
Time Latitude Longitude Altitude Speed Heading
2026-05-04 19:41 43.09456 12.50400 681 ft 0 kts 249°
2026-05-04 19:53 43.09456 12.50396 681 ft 1 kts 270°
2026-05-04 19:54 43.09471 12.50391 681 ft 4 kts 41°
2026-05-04 19:54 43.09485 12.50437 681 ft 7 kts 67°
2026-05-04 19:54 43.09533 12.50465 682 ft 9 kts 22°
2026-05-04 19:54 43.09567 12.50541 680 ft 10 kts 66°
2026-05-04 19:55 43.09600 12.50640 683 ft 12 kts 65°
2026-05-04 19:55 43.09637 12.50752 681 ft 14 kts 66°
2026-05-04 19:55 43.09679 12.50878 684 ft 15 kts 65°
2026-05-04 19:55 43.09725 12.51015 685 ft 16 kts 65°
2026-05-04 19:56 43.09777 12.51153 684 ft 15 kts 34°
2026-05-04 19:56 43.09867 12.51188 686 ft 14 kts 14°
2026-05-04 19:56 43.09967 12.51222 687 ft 15 kts 14°
2026-05-04 19:56 43.10072 12.51259 688 ft 16 kts 14°
2026-05-04 19:57 43.10183 12.51297 689 ft 17 kts 14°
2026-05-04 19:57 43.10300 12.51339 691 ft 18 kts 14°
2026-05-04 19:57 43.10421 12.51381 692 ft 18 kts 14°
2026-05-04 19:57 43.10546 12.51423 688 ft 19 kts 14°
2026-05-04 19:58 43.10667 12.51466 688 ft 15 kts 14°
2026-05-04 19:58 43.10759 12.51502 696 ft 15 kts 31°
2026-05-04 19:58 43.10778 12.51588 694 ft 0 kts 103°
2026-05-04 19:59 43.10777 12.51594 693 ft 4 kts 104°
2026-05-04 19:59 43.10763 12.51696 680 ft 10 kts 90°
2026-05-04 19:59 43.10724 12.51718 679 ft 0 kts 193°
2026-05-04 19:59 43.10589 12.51670 679 ft 55 kts 194°
2026-05-04 20:00 43.10021 12.51471 677 ft 108 kts 194°
2026-05-04 20:00 43.09196 12.51179 696 ft 132 kts 194°
2026-05-04 20:00 43.08319 12.50854 1103 ft 127 kts 199°
2026-05-04 20:00 43.07506 12.50324 1488 ft 142 kts 213°
2026-05-04 20:01 43.06597 12.49544 1853 ft 165 kts 209°
2026-05-04 20:01 43.05523 12.48755 2213 ft 184 kts 207°
2026-05-04 20:01 43.04349 12.47926 2550 ft 196 kts 206°
2026-05-04 20:01 43.03106 12.47064 2903 ft 204 kts 206°
2026-05-04 20:02 43.01830 12.46177 3240 ft 208 kts 205°
2026-05-04 20:02 43.00531 12.45277 3576 ft 210 kts 206°
2026-05-04 20:02 42.99229 12.44369 3949 ft 209 kts 205°
2026-05-04 20:02 42.97934 12.43484 4372 ft 207 kts 205°
2026-05-04 20:03 42.96679 12.42598 4806 ft 205 kts 206°
2026-05-04 20:03 42.95412 12.41717 5224 ft 203 kts 205°
2026-05-04 20:03 42.94151 12.40847 5647 ft 203 kts 205°
2026-05-04 20:03 42.92889 12.39973 5987 ft 207 kts 205°
2026-05-04 20:04 42.91560 12.39055 5998 ft 221 kts 205°
2026-05-04 20:04 42.90158 12.38083 6006 ft 231 kts 205°
2026-05-04 20:04 42.88708 12.37080 6017 ft 237 kts 206°
2026-05-04 20:04 42.87221 12.36049 6016 ft 240 kts 205°
2026-05-04 20:05 42.85732 12.35024 6025 ft 243 kts 205°
2026-05-04 20:05 42.84221 12.33981 6158 ft 239 kts 206°
2026-05-04 20:05 42.82770 12.32973 6516 ft 230 kts 206°
2026-05-04 20:05 42.81360 12.32006 6846 ft 223 kts 205°
2026-05-04 20:06 42.80402 12.31561 7065 ft 219 kts 189°
2026-05-04 20:06 42.78888 12.31705 7394 ft 219 kts 167°
2026-05-04 20:06 42.77463 12.32442 7734 ft 219 kts 161°
2026-05-04 20:06 42.76041 12.33186 8073 ft 219 kts 162°
2026-05-04 20:07 42.74618 12.33933 8426 ft 219 kts 161°
2026-05-04 20:07 42.73197 12.34683 8779 ft 219 kts 161°
2026-05-04 20:07 42.71773 12.35434 9128 ft 219 kts 161°
2026-05-04 20:07 42.70349 12.36182 9490 ft 219 kts 161°
2026-05-04 20:08 42.68924 12.36932 9857 ft 220 kts 161°
2026-05-04 20:08 42.67492 12.37684 10196 ft 221 kts 161°
2026-05-04 20:08 42.66056 12.38437 10531 ft 221 kts 162°
2026-05-04 20:08 42.64633 12.39183 10860 ft 222 kts 162°
2026-05-04 20:09 42.63191 12.39939 11201 ft 222 kts 162°
2026-05-04 20:09 42.61743 12.40699 11546 ft 223 kts 162°
2026-05-04 20:09 42.60298 12.41455 11881 ft 223 kts 162°
2026-05-04 20:09 42.58856 12.42213 12229 ft 222 kts 162°
2026-05-04 20:10 42.57416 12.42966 12583 ft 222 kts 162°
2026-05-04 20:10 42.55975 12.43719 12939 ft 222 kts 162°
2026-05-04 20:10 42.54532 12.44475 13295 ft 222 kts 162°
2026-05-04 20:10 42.53089 12.45230 13659 ft 222 kts 162°
2026-05-04 20:11 42.51646 12.45983 14018 ft 222 kts 162°
2026-05-04 20:11 42.50205 12.46736 14343 ft 222 kts 162°
2026-05-04 20:11 42.48769 12.47485 14672 ft 221 kts 163°
2026-05-04 20:11 42.47338 12.48233 15008 ft 220 kts 163°
2026-05-04 20:12 42.45914 12.48975 15342 ft 219 kts 163°
2026-05-04 20:12 42.44497 12.49713 15665 ft 218 kts 163°
2026-05-04 20:12 42.43091 12.50445 15956 ft 219 kts 163°
2026-05-04 20:12 42.41645 12.51198 16259 ft 220 kts 163°
2026-05-04 20:13 42.40232 12.51933 16553 ft 220 kts 163°
2026-05-04 20:13 42.38803 12.52678 16859 ft 221 kts 163°
2026-05-04 20:13 42.37353 12.53431 17168 ft 225 kts 164°
2026-05-04 20:13 42.35877 12.54197 17482 ft 228 kts 163°
2026-05-04 20:14 42.34385 12.54974 17805 ft 231 kts 164°
2026-05-04 20:14 42.32874 12.55759 18125 ft 233 kts 164°
2026-05-04 20:14 42.31358 12.56545 18435 ft 234 kts 165°
2026-05-04 20:14 42.29850 12.57326 18710 ft 236 kts 164°
2026-05-04 20:15 42.28315 12.58124 18993 ft 237 kts 164°
2026-05-04 20:15 42.26772 12.58922 19271 ft 238 kts 164°
2026-05-04 20:15 42.25227 12.59724 19553 ft 238 kts 164°
2026-05-04 20:15 42.23646 12.60348 19842 ft 235 kts 171°
2026-05-04 20:16 42.22056 12.60940 20135 ft 236 kts 169°
2026-05-04 20:16 42.20495 12.61553 20422 ft 237 kts 169°
2026-05-04 20:16 42.18906 12.62153 20713 ft 238 kts 169°
2026-05-04 20:16 42.17306 12.62751 21016 ft 238 kts 169°
2026-05-04 20:17 42.15703 12.63351 21311 ft 239 kts 169°
2026-05-04 20:17 42.14104 12.63954 21613 ft 239 kts 169°
2026-05-04 20:17 42.12496 12.64555 21922 ft 240 kts 169°
2026-05-04 20:17 42.10885 12.65160 22231 ft 240 kts 169°
2026-05-04 20:18 42.09267 12.65765 22545 ft 241 kts 169°
2026-05-04 20:18 42.07648 12.66372 22857 ft 242 kts 169°
2026-05-04 20:18 42.06046 12.66972 23179 ft 242 kts 168°
2026-05-04 20:18 42.04416 12.67581 23502 ft 243 kts 169°
2026-05-04 20:19 42.02777 12.68195 23810 ft 244 kts 168°
2026-05-04 20:19 42.01134 12.68810 24089 ft 245 kts 169°
2026-05-04 20:19 41.99483 12.69424 24357 ft 246 kts 169°
2026-05-04 20:19 41.97829 12.70043 24632 ft 247 kts 169°
2026-05-04 20:20 41.96163 12.70664 24913 ft 249 kts 170°
2026-05-04 20:20 41.94495 12.71286 25195 ft 250 kts 170°
2026-05-04 20:20 41.92817 12.71912 25479 ft 251 kts 170°
2026-05-04 20:20 41.91148 12.72532 25764 ft 252 kts 171°
2026-05-04 20:21 41.89452 12.73166 26045 ft 254 kts 171°
2026-05-04 20:21 41.87743 12.73800 26336 ft 255 kts 171°
2026-05-04 20:21 41.84293 12.75082 26951 ft 259 kts 172°
2026-05-04 20:22 41.82550 12.75732 27254 ft 260 kts 172°
2026-05-04 20:22 41.80798 12.76381 27562 ft 262 kts 172°
2026-05-04 20:22 41.79035 12.77034 27873 ft 263 kts 173°
2026-05-04 20:22 41.77288 12.77684 28188 ft 265 kts 172°
2026-05-04 20:23 41.75507 12.78343 28498 ft 266 kts 173°
2026-05-04 20:23 41.73711 12.79008 28821 ft 268 kts 172°
2026-05-04 20:23 41.71913 12.79675 29143 ft 268 kts 173°
2026-05-04 20:23 41.70111 12.80342 29458 ft 270 kts 173°
2026-05-04 20:24 41.68299 12.81012 29773 ft 271 kts 174°
2026-05-04 20:24 41.66476 12.81684 30107 ft 272 kts 174°
2026-05-04 20:24 41.64643 12.82361 30409 ft 274 kts 174°
2026-05-04 20:24 41.62787 12.83043 30701 ft 279 kts 174°
2026-05-04 20:25 41.60897 12.83742 30998 ft 284 kts 174°
2026-05-04 20:25 41.59003 12.84441 31296 ft 287 kts 174°
2026-05-04 20:25 41.57074 12.85152 31603 ft 288 kts 174°
2026-05-04 20:25 41.55135 12.85869 31904 ft 289 kts 174°
2026-05-04 20:26 41.53194 12.86581 32211 ft 290 kts 174°
2026-05-04 20:26 41.51241 12.87300 32525 ft 292 kts 175°
2026-05-04 20:26 41.49276 12.88019 32837 ft 295 kts 175°
2026-05-04 20:26 41.47290 12.88750 33128 ft 298 kts 175°
2026-05-04 20:27 41.45235 12.89497 33138 ft 312 kts 174°
2026-05-04 20:27 41.43100 12.90278 33149 ft 325 kts 173°
2026-05-04 20:27 41.40880 12.91094 33150 ft 337 kts 173°
2026-05-04 20:27 41.38610 12.91929 33153 ft 348 kts 173°
2026-05-04 20:28 41.33794 12.93692 33149 ft 368 kts 172°
2026-05-04 20:28 41.28735 12.95540 33146 ft 384 kts 172°
2026-05-04 20:29 41.23485 12.97455 33134 ft 397 kts 171°
2026-05-04 20:29 41.18133 12.99408 33144 ft 405 kts 171°
2026-05-04 20:30 41.12902 13.01310 33143 ft 411 kts 171°
2026-05-04 20:30 41.07351 13.03322 33143 ft 415 kts 171°
2026-05-04 20:31 41.02526 13.05073 33130 ft 417 kts 170°